THORAD AGENA D DEB, 4435

Orbit data source: Space-Track

THORAD AGENA D DEB, 4435 is space debris in LEO originally from a launch on Tue, 30 Sep 1969 UTC launched from the Air Force Western Test Range (AFWTR). Debris objects in space refer to the collection of defunct objects orbiting the Earth. Examples of debris include non-operational satellites, rocket bodies, and fragments generated from explosions, collisions, or faulty payload assembly.

Loading next visibility...
Identifier
4435, 1969-082EG
Orbit
LEO
Country
Flag of USUS
Related business
Manufacturer
Unknown
Mission
Spacecraft
Bus & Motor
Unknown
Mass
Unknown
Launch date (UTC)
1969-09-30 (57 years ago)
Launch vehicle
Unknown
Launch site
Air Force Western Test Range (AFWTR)
Object type
Payload
Rocket body
Debris
Shape & HBR
Unknown shape, 0.1 m
Radar Cross Section
Medium (>0.1 m² and <1 m²)

Expand to show TLE details & history
Last TLE update: 14 hours ago

TLE from 14 hours ago
0 THORAD AGENA D DEB
1 04435U 69082EG  26173.66489758  .00008864  00000-0  83767-3 0  9993
2 04435  70.0125 313.1942 0014499 227.9713 132.0211 14.93909279967953
Epoch: 2026-06-22T15:57Z
TLE epoch observation values (Epoch: 2026-06-22T15:57:27.150Z)
Latitude
-0.00002°
Longitude
162.98351°
Altitude
594.948 km
Speed
7.559 km/s
True Right ascension
20h 52m 46s
True Declination
0° 00' 00"
Sunlit
Object was in full shadow at epoch
Visualization orbit readout
Latitude
Unknown
Longitude
Unknown
Altitude
Unknown
Speed
Unknown
Apparent Right ascension
Unknown
Apparent Declination
Unknown
Sunlit
N/A
Visualization observer readout
Local Sidereal Time
17:05:07
Azimuth
Unknown
Elevation
Unknown
Doppler factor
Unknown
Orbital elements
Apogee altitude
593.805 km
Perigee altitude
573.617 km
Semi-major axis
6,961.848 km
Eccentricity
0.00145
Inclination
70.0125°
RAAN
313.1942°
Arg. of periapsis
227.9713°
True anomaly
132.14438°
Mean anomaly
132.0211°
Eccentric anomaly
132.08276°
Mean motion
3.73643 °/min
Orbital period
96.35 mins
BSTAR
0.00083767
Loading maneuver chart data...
Computing Atmospheric mass density...

Documentation

Showing up to 5 results
|